Airfield :







YOU CAN JOIN US ON...

 
LOGIN :

Register | Disclaimer

   EN    FR    IT 

 









Legend :    VFR   Marginal VFR   IFR   Intensive IFR   Very Intensive IFR
Visi :
Ceiling :
>= 8 km
>= 3000ft
5 to 8 km
1000 to 3000 ft
1500m to 5 km
500 to 1000 ft
800 to 1500m
200 to 500 ft
< 800m
< 200 ft
Symbols :   Thunderstorms  Fog  Heavy snow  Heavy precipitations  Wind > 20 kt






- Airport Elevation : 193 ft
- IATA code : ZBF


CZBF - Bathurst

CURRENT METAR :
  • 090432Z AUTO 34007G15KT 310V010 9SM -RA OVC026 05/04 A2965 RMK SLP043

EXPIRED METARs :
  • 090400Z AUTO 35008KT 310V030 8SM -RA OVC024 05/04 A2966 RMK SLP048
  • 090300Z AUTO 34006KT 320V020 8SM -RA OVC024 05/04 A2969 RMK SLP058
  • 090200Z AUTO 36006KT 310V030 9SM RA OVC022 05/04 A2972 RMK SLP067

Expired Forecast.
CZQM FIR / North America



MET'MAP, your aeronautical weather chart ! - Copyright ORBIFLY December 2007 - Disclaimer

ORBIFLY MET'MAP TEAM :

Programming & Development : Alexandra Zaïnal
Concept & original design : Baudouin d'Aumeries
Assistance for programming : Marc-Olivier Méhu
Technical & hardware support : Manuel Goepfert

Contact : metmap@orbifly.com




SOURCES & CREDITS :

   NOAA